Flag for Cameroon Weather past 2 weeks in Douala, Cameroon

Now
75 °F

Drizzle. Mostly cloudy.


Feels Like: 73 °F
Forecast: 74 / 81 °F
Wind: No wind

Location: Douala Obs.

Current Time: Jul 23, 2014 at 5:42:27 AM

Latest Report: Jul 23, 2014 at 5:00 AM


Visibility: 2 mi

Pressure: 29.98 "Hg

Humidity: 100%

Dew point: 75 °F

Location of DoualaLocation

Historic Weather in Douala — Graph

°F

Douala temperature yesterday

Maximum temperature yesterday: 81 °F (at 12:00 PM)
Minimum temperature yesterday: 75 °F (at 2:00 AM)
Average temperature yesterday: 77 °F

Past Weeks' High & Low Weather Summary

 TemperatureHumidityPressure
High84 °F (Jul 9, 3:00 PM)100% (Jul 8, 9:00 AM)30.07 "Hg (Jul 8, 9:00 AM)
Low72 °F (Jul 15, 11:00 AM)70% (Jul 9, 3:00 PM)29.86 "Hg (Jul 14, 6:00 PM)
Average78 °F90%29.97 "Hg
* Reported Jul 8 4:00 AM — Jul 23 4:00 AM, Douala, Weather by CustomWeather, © 2014

Note: Actual official high and low records may vary slightly from our data, if they occured in-between our weather recording intervals... More about our weather records

Advertising

Douala weather history for previous 24 hours

 ConditionsComfort  
Time TempWeatherWind HumidityBarometerVisibility
4:00 AM
Jul 23
75 °FDrizzle. Mostly cloudy.No wind100%29.98 "Hg3 mi
3:00 AM75 °FDrizzle. Mostly cloudy.No wind100%29.98 "Hg2 mi
2:00 AM75 °FMostly cloudy.No wind100%29.98 "Hg4 mi
1:00 AM75 °FMostly cloudy.No wind94%30.01 "Hg4 mi
12:00 AM75 °FMostly cloudy.No wind94%30.01 "HgN/A
6:00 PM
Jul 22
77 °FDrizzle. Mostly cloudy.2 mph94%29.95 "Hg2 mi
5:00 PM79 °FMostly cloudy.7 mph89%29.89 "HgN/A
3:00 PM81 °FPartly sunny.7 mph74%29.92 "HgN/A
2:00 PM81 °FMore clouds than sun.5 mph79%29.95 "HgN/A
1:00 PM81 °FPartly sunny.5 mph79%30.01 "HgN/A
12:00 PM81 °FBroken clouds.7 mph79%30.01 "HgN/A
11:00 AM79 °FPartly sunny.No wind84%30.04 "HgN/A
10:00 AM79 °FPartly sunny.7 mph89%30.04 "HgN/A
9:00 AM77 °FPartly sunny.No wind89%30.04 "HgN/A
8:00 AM75 °FDrizzle. More clouds than sun.No wind94%30.01 "Hg1 mi
7:00 AM75 °FDrizzle. More clouds than sun.No wind94%29.98 "Hg2 mi
6:00 AM75 °FPassing clouds.No wind94%29.98 "HgN/A
5:00 AM75 °FMostly cloudy.No wind94%29.95 "Hg4 mi
Weather by CustomWeather, © 2014

See weather overviewHow to use our weather pages